Location: Petruro
(41.0333°N, 14.7833°E)
Time: 12:57:47
(UTC+00:00)

DELTA 2 R/B (1) - Pass Details

Date: 30 October 2021
Orbit: 790 x 802 km, 39.6° (Epoch: 29 November)

Event Time Altitude Azimuth Distance (km) Brightness Sun altitude
Rises 16:43:16 0° 223° (SW) 3,293 7.8 -8.9°
Reaches altitude 10° 16:45:58 10° 214° (SW) 2,365 6.7 -9.4°
Maximum altitude 16:50:54 33° 152° (SSE) 1,326 4.6 -10.3°
Enters shadow 16:55:02 14° 95° (E) 2,115 5.2 -11.1°
